Location: Arrodets-la-Barthe
(43.0306°N, 0.2829°E)
Time: 01:00:53
(UTC+00:00)

Cosmos 2344 - Pass Details

Date: 29 May 2022
Orbit: 1228 x 3015 km, 63.3° (Epoch: 04 July)

Event Time Altitude Azimuth Distance (km) Brightness Sun altitude
Rises 00:39:41 0° 304° (NW) 4,190 6.6 -24.6°
Reaches altitude 10° 00:43:24 10° 323° (NW) 3,313 6.3 -24.5°
Maximum altitude 00:48:47 19° 7° (N) 2,887 6.3 -24.3°
Drops below altitude 10° 00:54:59 10° 50° (NE) 3,884 6.8 -24.0°
Sets 00:59:54 0° 68° (ENE) 5,193 7.3 -23.7°
